TEVEL2-7

Last updated on Mon Nov 03 2025 00:03:22 GMT+0000 (Coordinated Universal Time)

1 63238U 25052AE 25306.43667008 .00015673 00000+0 66522-3 0 9991 2 63238 97.4164 198.1697 0005584 210.7815 149.3095 15.23163398 35406
UTC large
Height (km)
Speed (km/s)
/
Latitude / Longitude
Inclination (degrees)
Orbital Period (minutes)
Azimuth
Elevation
Range (km)
Doppler Factor

Next 0 passes for location: London (51.5072 / 0.1276)

Sorry there are no passes over London.